Tracking 20228 objects as of 17-Jan-2020
HD Live streaming from Space Station
objects crossing your sky now

COSMOS 1375 DEB

Track COSMOS 1375 DEB now!
10-day predictions


NORAD ID: 17804
Int'l Code: 1982-055AW
Perigee: 896.6 km
Apogee: 932.4 km
Inclination: 65.8 °
Period: 103.1 minutes
Semi major axis: 7285 km
RCS: 0.0158 m2 (small)
Launch date: June 6, 1982
Source: Commonwealth of Independent States (former USSR) (CIS)
Launch site: PLESETSK MISSILE AND SPACE COMPLEX (PKMTR)

Note: This is SATELLITE DEBRIS
aabbcc
Your satellite tracking list
Your tracking list is empty




NASA's NSSDC Master Catalog

Two Line Element Set (TLE):
1 17804U 82055AW  20017.12722825  .00000235  00000-0  23292-3 0  9990
2 17804  65.8189 265.1533 0024575 306.2841 205.1909 13.96103684729938
Source of the keplerian elements: AFSPC